Zacatecas Airport, Mexico

6:47 PM CDT on July 22, 2017 (GMT -0500)
Gen Leobardo C Ruiz International

Weather History for MMZC - September, 2013

Change the Weather History Date:

Wednesday, September 25, 2013

  Actual Average Record
Temperature  
Mean Temperature 62 °F -  
Max Temperature 75 °F 73 °F 84 °F (1999)
Min Temperature 48 °F 49 °F 44 °F (2002)
Degree Days  
Heating Degree Days 4    
Growing Degree Days 12 (Base 50)    
Moisture  
Dew Point 48 °F    
Average Humidity 64    
Maximum Humidity 82    
Minimum Humidity 38    
Precipitation  
Precipitation 0.00 in - - ()
Sea Level Pressure  
Sea Level Pressure 30.20 in    
Wind  
Wind Speed 3 mph ()    
Max Wind Speed 13 mph    
Max Gust Speed -    
Visibility 10.4 miles    
Events      
Averages and records for this station are not official NWS values.
T = Trace of Precipitation, MM = Missing Value Source: Averaged Metar Reports

Daily Weather History Graph

Daily Weather History Graph

Search for Another Location

Airport or City:

Trip Planner

Search our weather history database for the weather conditions in past years. The results will help you decide how hot, cold, wet, or windy it might be!

Date:

Astronomy

Sep. 25, 2013 Rise Set
Actual Time 7:40 AM CDT 7:43 PM CDT
Civil Twilight 7:18 AM CDT 8:06 PM CDT
Nautical Twilight 6:51 AM CDT 8:32 PM CDT
Astronomical Twilight 6:25 AM CDT 8:58 PM CDT
Moon No Moon Rise 1:12 PM CDT (9/25)
Length of Visible Light 12h 48m
Length of Day
12h 03m
Waning Gibbous, 64% of the Moon is Illuminated
Sep 25
Waning Gibbous
Sep 26
Last Quarter
Oct 4
New
Oct 11
First Quarter
Oct 18
Full

Hourly Weather History & Observations

Time (CDT) Temp. Dew Point Humidity Pressure Visibility Wind Dir Wind Speed Gust Speed Precip Events Conditions
12:40 AM 55.4 °F 48.2 °F 77% 30.24 in 10.0 mi WSW 4.6 mph - N/A   Partly Cloudy
1:41 AM 53.6 °F 46.4 °F 77% 30.23 in 10.0 mi Calm Calm - N/A   Clear
2:40 AM 53.6 °F 44.6 °F 72% 30.22 in 10.0 mi Calm Calm - N/A   Clear
3:40 AM 51.8 °F 42.8 °F 71% 30.21 in 10.0 mi SSW 3.5 mph - N/A   Clear
4:40 AM 50.0 °F 44.6 °F 82% 30.20 in 10.0 mi Calm Calm - N/A   Clear
5:40 AM 48.2 °F 41.0 °F 76% 30.20 in 10.0 mi SW 4.6 mph - N/A   Clear
6:40 AM 50.0 °F 42.8 °F 76% 30.21 in 10.0 mi South 5.8 mph - N/A   Clear
7:40 AM 48.2 °F 42.8 °F 82% 30.22 in 20.0 mi Calm Calm - N/A   Clear
8:40 AM 53.6 °F 48.2 °F 82% 30.23 in 10.0 mi Calm Calm - N/A   Clear
9:41 AM 60.8 °F 51.8 °F 72% 30.24 in 10.0 mi Calm Calm - N/A   Partly Cloudy
10:44 AM 66.2 °F 50.0 °F 56% 30.25 in 10.0 mi SE 9.2 mph - N/A   Scattered Clouds
11:40 AM 69.8 °F 51.8 °F 53% 30.25 in 10.0 mi SE 5.8 mph - N/A   Scattered Clouds
1:00 PM 73.4 °F 51.8 °F 47% 30.23 in 10.0 mi SE 12.7 mph - N/A   Mostly Cloudy
1:40 PM 73.4 °F 51.8 °F 47% 30.22 in 10.0 mi ESE 8.1 mph - N/A   Mostly Cloudy
3:44 PM 75.2 °F 51.8 °F 44% 30.16 in 10.0 mi ENE 5.8 mph - N/A   Mostly Cloudy
4:43 PM 75.2 °F 51.8 °F 44% 30.14 in 10.0 mi ESE 8.1 mph - N/A   Mostly Cloudy
5:49 PM 73.4 °F 48.2 °F 41% 30.13 in 10.0 mi East 9.2 mph - N/A   Mostly Cloudy
6:46 PM 73.4 °F 46.4 °F 38% 30.13 in 10.0 mi SE 5.8 mph - N/A   Scattered Clouds
7:46 PM 66.2 °F 48.2 °F 52% 30.14 in 10.0 mi South 4.6 mph - N/A   Partly Cloudy
8:44 PM 62.6 °F 48.2 °F 59% 30.15 in 10.0 mi South 3.5 mph - N/A   Partly Cloudy
9:46 PM 59.0 °F 48.2 °F 67% 30.16 in 10.0 mi South 5.8 mph - N/A   Clear
10:42 PM 57.2 °F 48.2 °F 72% 30.17 in 10.0 mi Calm Calm - N/A   Clear
11:41 PM 55.4 °F 48.2 °F 77% 30.18 in 10.0 mi Calm Calm - N/A   Clear